{"data":{"norad_id":59758,"intl_designator":"2024-091F","name":"STARLINK-11105 [DTC]","alt_names":[],"object_type":"PAYLOAD","status":"ACTIVE","operator":null,"country":"US","launch_date":"2024-05-14","launch_site_code":"AFWTR","launch_vehicle":null,"mission":null,"orbit_class":"UNKNOWN","rcs_meters":null,"size_class":null,"mass_kg":null,"dimensions":null,"purposes":["comms"],"wikipedia_slug":null,"has_3d_model":false,"image_url":null,"decayed_at":null,"tle_current":{"epoch":"2026-09-21T09:58:01.711776Z","epoch_age_seconds":92228,"freshness":"FRESH","line1":"1 59758U 24091F   26264.41529759 -.00000097  00000+0  40583-5 0  9993","line2":"2 59758  53.1597 321.4718 0000883 108.1391 251.9723 15.69705603136252","mean_motion":15.69705603,"eccentricity":8.83e-5,"inclination_deg":53.1597,"raan_deg":321.4718,"arg_perigee_deg":108.1391,"mean_anomaly_deg":251.9723,"bstar":4.0583e-6,"rev_number":13625,"period_min":91.736947186013,"perigee_km":359.14437849987,"apogee_km":360.33428746027,"semimajor_km":6737.8763329801,"source":"CELESTRAK","updated_at":"2026-09-22T09:00:49.067788Z"}}}